Regional Weather Roundup
Issued by NWS Charleston, SC

Current Version | Previous Version | Graphics & Text | Print | Product List | Glossary On
Versions: 1 2 3 4 5 6 7 8 9 10 11 12 13 14 15 16 17 18 19 20 21 22 23 24 25 26 27 28 29 30 31 32 33 34 35 36 37 38 39 40 41 42 43 44 45 46 47 48 49 50
000 ASUS42 KCHS 060526 RWRCHS REGIONAL WEATHER ROUNDUP NATIONAL WEATHER SERVICE CHARLESTON SC 1200 AM EST FRI MAR 06 2015 NOTE: "FAIR" INDICATES FEW OR NO CLOUDS BELOW 12,000 FEET WITH NO SIGNIFICANT WEATHER AND/OR OBSTRUCTIONS TO VISIBILITY. NOT ALL STATIONS ARE QUALITY CONTROLLED BY THE NATIONAL WEATHER SERVICE. USE DATA WITH CAUTION...ESPECIALLY DEWPOINT OBSERVATIONS. SCZ027-030-031-034>040-042>050-060600- ...SOUTHEAST SOUTH CAROLINA... CITY SKY/WX TMP DP RH WIND PRES REMARKS N CHARLESTON CLOUDY 45 42 89 NE20G25 30.22R WATERFRONT PRK N/A 46 N/A N/A N26 N/A MOUNT PLEASANT CLOUDY 45 43 93 N12G23 30.22R PINOPOLIS NOT AVBL MONCKS CORNER CLOUDY 43 37 81 NE17G28 30.25R SUMMERVILLE CLOUDY 43 41 93 N14G25 30.26R BEAUFORT MCAS LGT RAIN 47 44 90 N24G31 30.21R FOG BEAUFORT ARPT CLOUDY 46 46 100 N20 30.21R HILTON HEAD IS CLOUDY 52 50 93 N20G25 30.20R WALTERBORO DRIZZLE 45 43 93 N14G23 30.27R ALLENDALE CLOUDY 45 41 87 N13G18 30.24S ...SOUTHERN MIDLANDS AND PEE DEE... CITY SKY/WX TMP DP RH WIND PRES REMARKS GEORGETOWN NOT AVBL KINGSTREE NOT AVBL ORANGEBURG LGT RAIN 41 37 86 NE16G25 30.27R FOG BARNWELL CLOUDY 43 43 100 NE16G23 30.26S AIKEN CLOUDY 39 36 87 NE15G21 30.30R WCI 31 MANNING CLOUDY 41 36 81 NE13G25 30.27R COLUMBIA LGT RAIN 42 36 79 NE10 30.29R SUMTER LGT RAIN 39 32 75 NE16 30.28R WCI 30 FLORENCE CLOUDY 39 34 82 NE15 30.29F WCI 31 MYRTLE BEACH CLOUDY 39 34 81 N23G29 30.28S WCI 29 N MYRTLE BEACH CLOUDY 38 35 89 N13 30.25R WCI 30 $$ GAZ063-065-086>088-099>101-113>116-118-119-134>141-150-060600- ...SOUTHEAST GEORGIA... CITY SKY/WX TMP DP RH WIND PRES REMARKS SAVANNAH ARPT CLOUDY 55 49 80 NW13 30.18R HUNTER AAF CLOUDY 56 53 89 NW17 30.15R FORT STEWART CLOUDY 54 48 82 NW15 30.19R STATESBORO CLOUDY 49 46 86 N12 30.21F SYLVANIA DRIZZLE 48 48 99 NE12 30.23F CLAXTON CLOUDY 50 45 81 NW8 30.23S ...CSRA...CENTRAL AND FAR SOUTHEAST GEORGIA... CITY SKY/WX TMP DP RH WIND PRES REMARKS THOMSON CLOUDY 46 42 89 NE7 30.31R AUGUSTA-BUSH CLOUDY 44 41 89 NE17 30.27R AUGUSTA-DANIEL CLOUDY 45 38 76 NE15G25 30.26R SWAINSBORO CLOUDY 46 34 61 NW9 30.25R VIDALIA CLOUDY 45 41 87 NW6 30.24S EASTMAN CLOUDY 43 39 86 NW6 30.28S HAZLEHURST FAIR 47 44 87 NW6 30.23S ALMA PTCLDY 49 42 77 NW13 30.22S WAYCROSS MOCLDY 54 49 85 N10 30.22S JESUP FAIR 54 50 87 N10G17 30.21R BAXLEY FAIR 48 43 81 N7 30.22S BRUNSWICK CLOUDY 59 55 88 NW7 30.19R SAINT SIMONS CLOUDY 60 55 83 NW7 30.16S $$ SCZ027-028-034-036>038-045-046-048>050-GAZ119-141-060600- ...LAKE AND SUPPLEMENTAL COASTAL OBSERVATIONS... STATION/POSITION TIME TEMP WIND PRES WAVE SWELL AIR SEA DIR/SP/G HT/PER HT/PER/DIR (UTC) (F) (DEG/KT/KT) (MB) (FT/S) (FT/S/D) UPR LAKE MARION NOT AVBL WINYAH BAY 0445 41 360/ 12 1023.0R LAKE MURRAY 0500 40 40/ 8/ 10 1025.1F ACE BASIN NERRS NOT AVBL FORT PULASKI 0500 58 54 300/ 11/ 14 1021.4F SAPELO ISLAND 0500 59 300/ 11 1021.0S $$ ANZ835-935-AMZ111-154-330-350-352-354-370-450-454-472-060600- ...C-MAN AND BUOY OBSERVATIONS... STATION/POSITION TIME TEMP WIND PRES WAVE SWELL AIR SEA DIR/SP/G HT/PER HT/PER/DIR (UTC) (F) (DEG/KT/KT) (MB) (FT/S) (FT/S/D) BUOY 41004 0450 50 68 20/ 27/ 33 1020.3R 6/ 5 2/11 BUOY 41008 0450 57 55 330/ 14/ 16 1020.6R 2/11 2/130/11 FOLLY BEACH CMAN 0500 46 10/ 20/ 23 1022.9R CAPERS NEARSHORE 0400 49 10/ 21/ 25 N/A FRIPP NEARSHORE 0400 57 310/ 10/ 14 1020.0 STATION/POSITION TIME TEMP WIND PRES WAVE SWELL AIR SEA DIR/SP/G HT/PER HT/PER/DIR (UTC) (F) (DEG/KT/KT) (MB) (FT/S) (FT/S/D) 5E ST. MARYS GA 0421 56 N/A 2/12 2/ 90/12 FRYING PAN BUOY 0450 45 64 10/ 25/ 37 1022.0R 8/ 6 2/110/10 BUOY 41025 NOT AVBL CAPE LOOKOUT NC 0500 360/ 28/ 31 1024.3R BUOY 41002 0450 74 73 230/ 21/ 25 1019.3F 7/ 7 5/260/ 7 BUOY 41010 0420 75 75 190/ 12/ 16 1020.9S ST AUGUSTINE FL 0500 62 30/ 1/ 1 1021.2F $$

USA.gov is the U.S. government's official web portal to all federal, state and local government web resources and services.